User: anonymous
Location: Fort Hays State University
(38.8712°N, 99.3432°W)
Time: 23:33:53
(UTC-05:00)
Language:

ALOS - Orbit

View from above orbital plane
View from above orbital plane
View from above satellite
View from above satellite

Ground track
Ground track

The orbit data is extracted from the following two-line orbital elements,

1 28931U 06002A   14109.83863193  .00001629  00000-0  34063-3 0    41
2 28931 097.9889 169.9340 0001345 068.8567 021.2353 14.61072374438804
Epoch (UTC): 19 April 2014 20:07:37
Eccentricity: 0.0001345
inclination: 97.9889°
perigee height: 689 km
apogee height: 690 km
right ascension of ascending node: 169.9340°
argument of perigee: 68.8567°
revolutions per day: 14.61072374
mean anomaly at epoch: 21.2353°
orbit number at epoch: 43880

The dashed part of the orbit path shows where the satellite is in the earth's shadow,  

DLR